TimeCDT,TemperatureF,Dew PointF,Humidity,Sea Level PressureIn,VisibilityMPH,Wind Direction,Wind SpeedMPH,Gust SpeedMPH,PrecipitationIn,Events,Conditions,WindDirDegrees,DateUTC
12:53 AM,72.0,66.9,84,30.17,8.0,Calm,Calm,-,N/A,,Scattered Clouds,0,2013-07-16 05:53:00
1:53 AM,72.0,66.9,84,30.17,7.0,Calm,Calm,-,N/A,,Clear,0,2013-07-16 06:53:00
2:53 AM,71.1,68.0,90,30.16,6.0,SSE,4.6,-,N/A,,Clear,150,2013-07-16 07:53:00
3:53 AM,72.0,69.1,91,30.16,7.0,South,5.8,-,N/A,,Clear,170,2013-07-16 08:53:00
4:53 AM,71.1,69.1,93,30.16,7.0,South,5.8,-,N/A,,Clear,170,2013-07-16 09:53:00
5:53 AM,72.0,69.1,91,30.17,6.0,SSE,5.8,-,N/A,,Clear,160,2013-07-16 10:53:00
6:53 AM,73.9,70.0,87,30.18,8.0,South,8.1,-,N/A,,Clear,170,2013-07-16 11:53:00
7:53 AM,77.0,70.0,79,30.19,10.0,SSW,8.1,-,N/A,,Clear,210,2013-07-16 12:53:00
8:53 AM,80.1,69.1,69,30.20,10.0,SW,10.4,-,N/A,,Clear,220,2013-07-16 13:53:00
9:53 AM,82.9,69.1,63,30.20,-9999.0,SW,10.4,-,N/A,,Clear,230,2013-07-16 14:53:00
10:53 AM,86.0,68.0,55,30.19,10.0,SW,10.4,-,N/A,,Clear,220,2013-07-16 15:53:00
11:53 AM,88.0,69.1,53,30.20,10.0,SW,10.4,-,N/A,,Clear,220,2013-07-16 16:53:00
12:53 PM,90.0,66.9,46,30.19,10.0,SW,11.5,-,N/A,,Partly Cloudy,230,2013-07-16 17:53:00
1:53 PM,90.0,66.9,46,30.19,10.0,SW,11.5,20.7,N/A,,Clear,220,2013-07-16 18:53:00
2:53 PM,91.0,66.0,44,30.18,10.0,SSW,12.7,-,N/A,,Clear,210,2013-07-16 19:53:00
3:53 PM,91.0,64.9,42,30.18,10.0,SW,12.7,19.6,N/A,,Partly Cloudy,220,2013-07-16 20:53:00
4:53 PM,91.0,64.9,42,30.17,10.0,SW,16.1,-,N/A,,Clear,220,2013-07-16 21:53:00
5:53 PM,90.0,63.0,40,30.17,10.0,SW,11.5,-,N/A,,Clear,230,2013-07-16 22:53:00
6:53 PM,88.0,63.0,43,30.17,10.0,SW,8.1,-,N/A,,Clear,230,2013-07-16 23:53:00
7:53 PM,86.0,64.9,49,30.17,10.0,SSW,5.8,-,N/A,,Clear,210,2013-07-17 00:53:00
8:53 PM,82.0,66.9,60,30.17,10.0,SSW,4.6,-,N/A,,Clear,200,2013-07-17 01:53:00
9:53 PM,75.0,68.0,79,30.21,10.0,Calm,Calm,-,N/A,,Clear,0,2013-07-17 02:53:00
10:53 PM,73.0,68.0,84,30.21,10.0,Calm,Calm,-,N/A,,Clear,0,2013-07-17 03:53:00
11:53 PM,72.0,68.0,87,30.22,10.0,South,5.8,-,N/A,,Clear,180,2013-07-17 04:53:00